Goose Valley (237) Station Data

Red Flag Warning: No
Fire Weather Zone: 250
SDGE Region: Ramona
Lat/Lon: 33.073/-116.845

Observations

Time Wind Speed/Gust Temp(F) RH Fuel Moist Fuel Temp(F) Dewpt(F) Tmax(F) Tmin(F) Accum Precip 10-min Precip SL Press(mb)
6/22 5:00am 345 0 G 1 58° 79% - - 52° 66.6° 58.1° - - -
6/22 4:50am 0 0 G 0 59° 79% - - 52° 66.6° 58.5° - - -
6/22 4:40am 8 0 G 1 59° 78% - - 52° 66.6° 58.5° - - -
6/22 4:30am 352 0 G 1 59° 78% - - 52° 66.6° 58.7° - - -
6/22 4:20am 357 0 G 1 59° 78% - - 52° 66.6° 59.1° - - -
6/22 4:10am 1 0 G 1 60° 78% - - 53° 66.6° 59.3° - - -
6/22 4:00am 339 0 G 1 60° 77% - - 53° 66.6° 59.6° - - -
6/22 3:50am 353 0 G 1 60° 77% - - 53° 66.6° 59.8° - - -
6/22 3:40am 0 0 G 0 60° 77% - - 53° 66.6° 59.8° - - -
6/22 3:30am 355 1 G 1 60° 76% - - 53° 66.6° 60° - - -
6/22 3:20am 343 1 G 1 61° 75% - - 53° 66.6° 60.3° - - -
6/22 3:10am 90 0 G 1 61° 74% - - 53° 66.6° 61.1° - - -
6/22 3:00am 87 0 G 1 61° 75% - - 53° 66.6° 61.2° - - -
6/22 2:50am 283 0 G 1 62° 74% - - 53° 66.6° 61.4° - - -
6/22 2:40am 343 0 G 1 62° 73% - - 53° 66.6° 61.8° - - -
6/22 2:30am 346 0 G 1 62° 73% - - 54° 66.6° 62° - - -
6/22 2:20am 10 1 G 1 63° 73% - - 54° 66.6° 62.3° - - -
6/22 2:10am 0 0 G 0 63° 73% - - 54° 66.6° 62.7° - - -
6/22 2:00am 336 0 G 1 63° 73% - - 54° 66.6° 62.8° - - -
6/22 1:50am 358 1 G 1 64° 73% - - 55° 66.6° 63.2° - - -
6/22 1:40am 346 0 G 1 64° 73% - - 55° 66.6° 63.4° - - -
6/22 1:30am 340 0 G 1 64° 72% - - 55° 66.6° 63.5° - - -
6/22 1:20am 7 1 G 1 65° 71% - - 55° 66.6° 64.2° - - -
6/22 1:10am 58 0 G 1 65° 72% - - 55° 66.6° 64.4° - - -
6/22 1:00am 348 0 G 0 65° 71% - - 55° 66.6° 64.4° - - -
6/22 12:50am 349 1 G 2 65° 70% - - 55° 66.6° 64.9° - - -
6/22 12:40am 9 1 G 2 66° 70% - - 56° 66.6° 65.2° - - -
6/22 12:30am 358 0 G 1 66° 70% - - 56° 66.6° 65.6° - - -
6/22 12:20am 350 0 G 1 66° 69% - - 56° 66.6° 65.9° - - -
6/22 12:10am 0 0 G 0 66° 69% - - 56° 66.6° 66.2° - - -
6/22 12:00am 0 0 G 0 67° 68% - - 56° 99° 61.7° - - -
6/21 11:50pm 341 0 G 1 67° 68% - - 56° 99° 61.7° - - -
6/21 11:40pm 341 0 G 1 67° 67% - - 56° 99° 61.7° - - -
6/21 11:30pm 343 0 G 1 68° 66% - - 56° 99° 61.7° - - -
6/21 11:20pm 44 0 G 0 68° 65% - - 56° 99° 61.7° - - -
6/21 11:10pm 0 0 G 0 68° 65% - - 56° 99° 61.7° - - -
6/21 11:00pm 352 0 G 1 69° 64% - - 56° 99° 61.7° - - -
6/21 10:50pm 4 0 G 2 69° 63% - - 57° 99° 61.7° - - -
6/21 10:40pm 1 1 G 1 70° 63% - - 57° 99° 61.7° - - -
6/21 10:30pm 13 1 G 2 70° 62% - - 57° 99° 61.7° - - -
6/21 10:20pm 359 1 G 2 71° 62% - - 57° 99° 61.7° - - -
6/21 10:10pm 337 0 G 1 71° 61% - - 57° 99° 61.7° - - -
6/21 10:00pm 0 0 G 0 72° 60% - - 57° 99° 61.7° - - -
6/21 9:50pm 238 0 G 1 73° 59% - - 57° 99° 61.7° - - -
6/21 9:40pm 0 0 G 0 73° 58% - - 58° 99° 61.7° - - -
6/21 9:30pm 354 1 G 1 74° 57% - - 58° 99° 61.7° - - -
6/21 9:20pm 36 0 G 1 74° 56% - - 58° 99° 61.7° - - -
6/21 9:10pm 356 0 G 1 75° 54% - - 58° 99° 61.7° - - -
6/21 9:00pm 0 0 G 0 76° 53% - - 57° 99° 61.7° - - -
6/21 8:50pm 223 1 G 1 77° 52% - - 57° 99° 61.7° - - -
6/21 8:40pm 233 1 G 2 77° 50% - - 57° 99° 61.7° - - -
6/21 8:30pm 193 1 G 2 78° 48% - - 57° 99° 61.7° - - -
6/21 8:20pm 210 0 G 2 79° 47% - - 57° 99° 61.7° - - -
6/21 8:10pm 254 1 G 3 80° 46% - - 57° 99° 61.7° - - -
6/21 8:00pm 291 0 G 2 81° 45% - - 57° 99° 61.7° - - -
6/21 7:50pm 267 1 G 2 82° 43% - - 57° 99° 61.7° - - -
6/21 7:40pm 260 2 G 3 83° 41% - - 57° 99° 61.7° - - -
6/21 7:30pm 268 1 G 2 84° 39% - - 56° 99° 61.7° - - -
6/21 7:20pm 253 1 G 2 85° 37% - - 56° 99° 61.7° - - -
6/21 7:10pm 259 1 G 3 85° 36% - - 55° 99° 61.7° - - -
6/21 7:00pm 266 1 G 3 85° 36% - - 55° 99° 61.7° - - -
6/21 6:50pm 264 2 G 5 86° 35% - - 55° 99° 61.7° - - -
6/21 6:40pm 262 2 G 5 86° 34% - - 54° 99° 61.7° - - -
6/21 6:30pm 264 1 G 5 87° 32% - - 54° 99° 61.7° - - -
6/21 6:20pm 254 2 G 6 87° 33% - - 54° 99° 61.7° - - -
6/21 6:10pm 264 2 G 8 87° 32% - - 54° 99° 61.7° - - -
6/21 6:00pm 268 3 G 6 88° 31% - - 54° 99° 61.7° - - -
6/21 5:50pm 272 2 G 8 89° 30% - - 53° 99° 61.7° - - -
6/21 5:40pm 285 2 G 7 90° 29% - - 53° 99° 61.7° - - -
6/21 5:30pm 275 2 G 5 91° 28% - - 53° 99° 61.7° - - -
6/21 5:20pm 273 3 G 6 91° 27% - - 52° 99° 61.7° - - -
6/21 5:10pm 287 3 G 8 92° 25% - - 51° 99° 61.7° - - -
6/21 5:00pm 268 2 G 7 92° 24% - - 51° 99° 61.7° - - -
6/21 4:50pm 275 3 G 9 92° 24% - - 50° 99° 61.7° - - -
6/21 4:40pm 259 4 G 9 92° 25% - - 51° 99° 61.7° - - -
6/21 4:30pm 274 3 G 11 91° 27% - - 53° 99° 61.7° - - -
6/21 4:20pm 279 3 G 7 92° 27% - - 53° 99° 61.7° - - -
6/21 4:10pm 270 3 G 8 92° 27% - - 53° 99° 61.7° - - -
6/21 4:00pm 294 3 G 7 93° 26% - - 53° 99° 61.7° - - -
6/21 3:50pm 283 4 G 9 93° 26% - - 53° 99° 61.7° - - -
6/21 3:40pm 288 3 G 10 94° 25% - - 53° 99° 61.7° - - -
6/21 3:30pm 284 2 G 9 94° 25% - - 53° 99° 61.7° - - -
6/21 3:20pm 289 3 G 8 95° 23% - - 51° 99° 61.7° - - -
6/21 3:10pm 276 3 G 9 95° 22% - - 50° 99° 61.7° - - -
6/21 3:00pm 275 2 G 6 95° 22% - - 50° 99° 61.7° - - -
6/21 2:50pm 291 3 G 7 95° 22% - - 50° 99° 61.7° - - -
6/21 2:40pm 287 3 G 11 96° 21% - - 50° 99° 61.7° - - -
6/21 2:30pm 286 3 G 13 95° 21% - - 50° 99° 61.7° - - -
6/21 2:20pm 289 2 G 7 96° 21% - - 49° 99° 61.7° - - -
6/21 2:10pm 275 4 G 9 96° 21% - - 50° 99° 61.7° - - -
6/21 2:00pm 289 3 G 8 96° 22% - - 51° 99° 61.7° - - -
6/21 1:50pm 287 3 G 9 97° 21% - - 51° 99° 61.7° - - -
6/21 1:40pm 295 3 G 8 98° 20% - - 50° 99° 61.7° - - -
6/21 1:30pm 258 3 G 9 98° 21% - - 51° 98.5° 61.7° - - -
6/21 1:20pm 278 3 G 7 98° 20% - - 50° 98.5° 61.7° - - -
6/21 1:10pm 271 3 G 8 97° 21% - - 50° 98.3° 61.7° - - -
6/21 1:00pm 284 3 G 8 98° 21% - - 50° 98.3° 61.7° - - -
6/21 12:50pm 260 4 G 9 97° 21% - - 51° 98.3° 61.7° - - -
6/21 12:40pm 260 3 G 8 97° 20% - - 49° 98.3° 61.7° - - -
6/21 12:30pm 255 4 G 8 97° 20% - - 49° 98.3° 61.7° - - -
6/21 12:20pm 278 3 G 8 96° 21% - - 50° 98.3° 61.7° - - -
6/21 12:10pm 263 4 G 9 96° 21% - - 50° 98.3° 61.7° - - -
6/21 12:00pm 264 3 G 8 97° 21% - - 50° 98.3° 61.7° - - -
6/21 11:50am 257 4 G 10 96° 20% - - 49° 98.3° 61.7° - - -
6/21 11:40am 270 3 G 8 97° 20% - - 49° 98.3° 61.7° - - -
6/21 11:30am 256 4 G 9 97° 20% - - 49° 98.3° 61.7° - - -
6/21 11:20am 268 3 G 8 98° 17% - - 46° 98.3° 61.7° - - -
6/21 11:10am 186 2 G 6 97° 13% - - 38° 98° 61.7° - - -
6/21 11:00am 221 3 G 7 96° 13% - - 38° 96.7° 61.7° - - -
6/21 10:50am 244 3 G 7 95° 15% - - 40° 96.2° 61.7° - - -
6/21 10:40am 224 2 G 6 95° 16% - - 42° 95° 61.7° - - -
6/21 10:30am 240 3 G 6 94° 18% - - 44° 94.7° 61.7° - - -
6/21 10:20am 222 3 G 8 93° 19% - - 44° 93° 61.7° - - -
6/21 10:10am 235 2 G 6 91° 20% - - 44° 92° 61.7° - - -
6/21 10:00am 232 3 G 6 91° 21% - - 45° 91.6° 61.7° - - -
6/21 9:50am 223 2 G 7 91° 21% - - 46° 91.6° 61.7° - - -
6/21 9:40am 173 2 G 5 91° 22% - - 46° 91.6° 61.7° - - -
6/21 9:30am 178 2 G 4 90° 23% - - 47° 90.4° 61.7° - - -
6/21 9:20am 208 1 G 3 88° 24% - - 47° 89° 61.7° - - -
6/21 9:10am 180 1 G 4 88° 24% - - 46° 88.3° 61.7° - - -
6/21 9:00am 139 2 G 4 87° 25% - - 46° 87° 61.7° - - -
6/21 8:50am 142 1 G 4 86° 26% - - 47° 86.7° 61.7° - - -
6/21 8:40am 136 1 G 2 86° 27% - - 48° 86.3° 61.7° - - -
6/21 8:30am 208 1 G 2 84° 29% - - 48° 84.9° 61.7° - - -
6/21 8:20am 147 0 G 1 84° 29% - - 48° 84.7° 61.7° - - -
6/21 8:10am 108 0 G 1 82° 31% - - 48° 83.2° 61.7° - - -
6/21 8:00am 162 0 G 1 80° 32% - - 48° 81.2° 61.7° - - -
6/21 7:50am 107 0 G 1 80° 33% - - 48° 80.3° 61.7° - - -
6/21 7:40am 2 0 G 1 78° 35% - - 48° 79.1° 61.7° - - -
6/21 7:30am 122 0 G 0 76° 38% - - 48° 76.8° 61.7° - - -
6/21 7:20am 122 0 G 1 73° 44% - - 50° 75° 61.7° - - -
6/21 7:10am 0 0 G 0 72° 49% - - 52° 72° 61.7° - - -
6/21 7:00am 90 0 G 1 71° 51% - - 52° 71.6° 61.7° - - -
6/21 6:50am 67 0 G 1 69° 53% - - 52° 70° 61.7° - - -
6/21 6:40am 0 0 G 0 66° 59% - - 52° 69.5° 61.7° - - -
6/21 6:30am 8 1 G 1 64° 62% - - 50° 69.5° 61.7° - - -
6/21 6:20am 355 1 G 2 62° 65% - - 50° 69.5° 61.7° - - -
6/21 6:10am 4 1 G 2 62° 65% - - 50° 69.5° 61.7° - - -
6/21 6:00am 4 1 G 1 62° 65% - - 50° 69.5° 61.8° - - -
6/21 5:50am 350 1 G 2 62° 65% - - 50° 69.5° 61.8° - - -
6/21 5:40am 7 1 G 2 63° 65% - - 50° 69.5° 62.2° - - -
6/21 5:30am 347 1 G 3 63° 64% - - 51° 69.5° 62.5° - - -
6/21 5:20am 10 0 G 2 63° 64% - - 51° 69.5° 62.5° - - -
6/21 5:10am 15 1 G 2 63° 64% - - 51° 69.5° 62.5° - - -
6/21 5:00am 3 1 G 2 63° 65% - - 51° 69.5° 62.5° - - -
6/21 4:50am 2 0 G 1 63° 66% - - 51° 69.5° 62.5° - - -
6/21 4:40am 16 0 G 1 63° 66% - - 52° 69.5° 62.6° - - -
6/21 4:30am 1 1 G 2 63° 67% - - 52° 69.5° 62.6° - - -
6/21 4:20am 359 1 G 2 63° 67% - - 52° 69.5° 62.9° - - -
6/21 4:10am 1 1 G 2 63° 67% - - 52° 69.5° 62.9° - - -
6/21 4:00am 355 1 G 1 63° 67% - - 52° 69.5° 63.1° - - -
6/21 3:50am 4 1 G 1 64° 67% - - 52° 69.5° 63.4° - - -
6/21 3:40am 350 1 G 1 64° 66% - - 53° 69.5° 63.7° - - -
6/21 3:30am 349 1 G 2 64° 66% - - 53° 69.5° 63.9° - - -
6/21 3:20am 10 1 G 2 64° 66% - - 53° 69.5° 64° - - -
6/21 3:10am 360 1 G 2 65° 66% - - 53° 69.5° 64.3° - - -
6/21 3:00am 353 0 G 1 65° 65% - - 53° 69.5° 64.5° - - -
6/21 2:50am 341 0 G 2 65° 65% - - 53° 69.5° 64.9° - - -
6/21 2:40am 346 1 G 1 65° 65% - - 53° 69.5° 65.1° - - -
6/21 2:30am 89 0 G 1 65° 65% - - 53° 69.5° 65.1° - - -
6/21 2:20am 343 1 G 2 66° 65% - - 53° 69.5° 65.1° - - -
6/21 2:10am 4 1 G 1 66° 65% - - 54° 69.5° 65.5° - - -
6/21 2:00am 352 1 G 2 66° 64% - - 54° 69.5° 65.6° - - -
6/21 1:50am 358 0 G 1 67° 63% - - 54° 69.5° 66° - - -
6/21 1:40am 344 1 G 2 67° 63% - - 54° 69.5° 66.4° - - -
6/21 1:30am 358 0 G 1 67° 63% - - 54° 69.5° 66.5° - - -
6/21 1:20am 341 0 G 1 67° 62% - - 54° 69.5° 67° - - -
6/21 1:10am 4 0 G 1 67° 63% - - 54° 69.5° 67.2° - - -
6/21 1:00am 342 0 G 1 68° 62% - - 54° 69.5° 67.5° - - -
6/21 12:50am 0 0 G 0 68° 61% - - 54° 69.5° 67.8° - - -
6/21 12:40am 334 0 G 1 68° 60% - - 54° 69.5° 67.8° - - -
6/21 12:30am 2 0 G 1 69° 60% - - 54° 69.5° 68.5° - - -
6/21 12:20am 52 0 G 1 69° 59% - - 54° 69.5° 68.7° - - -
6/21 12:10am 320 0 G 1 69° 59% - - 54° 69.5° 69° - - -
6/21 12:00am 11 1 G 2 70° 58% - - 54° 99.9° 62.8° - - -
6/20 11:50pm 10 1 G 2 70° 57% - - 54° 99.9° 62.8° - - -
6/20 11:40pm 11 1 G 1 70° 56% - - 54° 99.9° 62.8° - - -
6/20 11:30pm 339 0 G 1 71° 55% - - 54° 99.9° 62.8° - - -
6/20 11:20pm 340 1 G 1 71° 55% - - 54° 99.9° 62.8° - - -
6/20 11:10pm 4 1 G 1 72° 54% - - 54° 99.9° 62.8° - - -
6/20 11:00pm 344 0 G 1 72° 53% - - 54° 99.9° 62.8° - - -
6/20 10:50pm 4 1 G 1 72° 51% - - 54° 99.9° 62.8° - - -
6/20 10:40pm 335 0 G 1 73° 49% - - 53° 99.9° 62.8° - - -
6/20 10:30pm 119 0 G 1 73° 49% - - 53° 99.9° 62.8° - - -
6/20 10:20pm 339 0 G 1 74° 49% - - 53° 99.9° 62.8° - - -
6/20 10:10pm 188 0 G 1 74° 48% - - 54° 99.9° 62.8° - - -
6/20 10:00pm 353 0 G 1 75° 48% - - 54° 99.9° 62.8° - - -
6/20 9:50pm 345 0 G 1 75° 47% - - 54° 99.9° 62.8° - - -
6/20 9:40pm 347 0 G 1 76° 46% - - 54° 99.9° 62.8° - - -
6/20 9:30pm 342 0 G 1 77° 45% - - 54° 99.9° 62.8° - - -
6/20 9:20pm 323 0 G 1 77° 44% - - 54° 99.9° 62.8° - - -
6/20 9:10pm 16 1 G 2 78° 43% - - 53° 99.9° 62.8° - - -
6/20 9:00pm 354 0 G 1 79° 41% - - 53° 99.9° 62.8° - - -
6/20 8:50pm 10 1 G 2 80° 39% - - 53° 99.9° 62.8° - - -
6/20 8:40pm 2 1 G 2 81° 38% - - 53° 99.9° 62.8° - - -
6/20 8:30pm 348 1 G 2 82° 36% - - 52° 99.9° 62.8° - - -
6/20 8:20pm 7 1 G 2 83° 33% - - 51° 99.9° 62.8° - - -
6/20 8:10pm 26 1 G 2 84° 31% - - 51° 99.9° 62.8° - - -
6/20 8:00pm 255 0 G 1 86° 29% - - 50° 99.9° 62.8° - - -
6/20 7:50pm 283 0 G 1 87° 27% - - 50° 99.9° 62.8° - - -
6/20 7:40pm 269 0 G 1 88° 26% - - 49° 99.9° 62.8° - - -
6/20 7:30pm 312 1 G 2 88° 26% - - 49° 99.9° 62.8° - - -
6/20 7:20pm 36 1 G 2 89° 25% - - 49° 99.9° 62.8° - - -
6/20 7:10pm 243 2 G 4 89° 25% - - 48° 99.9° 62.8° - - -
6/20 7:00pm 256 1 G 4 90° 24% - - 48° 99.9° 62.8° - - -
6/20 6:50pm 217 3 G 5 90° 24% - - 48° 99.9° 62.8° - - -
6/20 6:40pm 215 3 G 6 90° 23% - - 48° 99.9° 62.8° - - -
6/20 6:30pm 213 2 G 4 91° 23% - - 49° 99.9° 62.8° - - -
6/20 6:20pm 251 2 G 5 92° 22% - - 48° 99.9° 62.8° - - -
6/20 6:10pm 255 1 G 3 92° 23% - - 50° 99.9° 62.8° - - -
6/20 6:00pm 254 3 G 6 92° 24% - - 50° 99.9° 62.8° - - -